Location: Chandrammap?lem
(16.9200°N, 81.0051°E)
Time: 21:26:48
(UTC+00:00)

CZ-2C R/B - Pass Details

Date: 29 May 2024
Orbit: 665 x 780 km, 98.4° (Epoch: 14 June)

Event Time Altitude Azimuth Distance (km) Brightness Sun altitude
Rises 21:31:16 0° 22° (NNE) 3,015 6.4 -31.8°
Reaches altitude 10° 21:33:37 10° 30° (NNE) 2,091 5.5 -31.3°
Enters shadow 21:37:16 39° 78° (ENE) 989 3.4 -30.6°
